Weather History for Concordia, KS

Change the Weather History Date:

Monday, August 26, 2013

  Actual Average Record
Temperature  
Mean Temperature 84 °F 76 °F  
Max Temperature 93 °F 87 °F 105 °F (1936)
Min Temperature 74 °F 64 °F 44 °F (1910)
Degree Days  
Heating Degree Days 0 0  
Month to date heating degree days 0 0  
Since 1 June heating degree days 22 13  
Since 1 July heating degree days 7 0  
Cooling Degree Days 19 11  
Month to date cooling degree days 244 327  
Year to date cooling degree days 996 1117  
Since 1 June cooling degree days 893 1028  
Growing Degree Days 33 (Base 50)    
Moisture  
Dew Point 67 °F    
Average Humidity 64    
Maximum Humidity 84    
Minimum Humidity 44    
Precipitation  
Precipitation 0.00 in 0.09 in 2.54 in (1908)
Month to date precipitation 6.51 2.66  
Year to date precipitation 23.50 20.62  
Snow  
Snow 0.00 in 0.00 in 0.00 in ()
Month to date snowfall 0.0 0.0  
Year to date snowfall 20.3 13.7  
Since 1 July snowfall 0.0 0.0  
Snow Depth 0.00 in    
Sea Level Pressure  
Sea Level Pressure 30.02 in    
Wind  
Wind Speed 16 mph (South)    
Max Wind Speed 23 mph    
Max Gust Speed 29 mph    
Visibility 10 miles    
Events      
T = Trace of Precipitation, MM = Missing Value Source: NWS Daily Summary

Daily Weather History Graph

Daily Weather History Graph

Search for Another Location

Airport:

Trip Planner

Search our weather history database for the weather conditions in past years. The results will help you decide how hot, cold, wet, or windy it might be!

Date:

Astronomy

Aug. 26, 2013 Rise Set
Actual Time 6:53 AM CDT 8:10 PM CDT
Civil Twilight 6:25 AM CDT 8:38 PM CDT
Nautical Twilight 5:52 AM CDT 9:11 PM CDT
Astronomical Twilight 5:16 AM CDT 9:46 PM CDT
Moon 11:23 PM CDT (8/26) 12:54 PM CDT (8/26)
Length of Visible Light 14h 12m
Length of Day
13h 16m
Waning Gibbous, 66% of the Moon is Illuminated
Aug 26
Waning Gibbous
Aug 28
Last Quarter
Sep 5
New
Sep 12
First Quarter
Sep 19
Full

Hourly Weather History & Observations

Time (CDT) Temp. Heat Index Dew Point Humidity Pressure Visibility Wind Dir Wind Speed Gust Speed Precip Events Conditions
12:55 AM 78.1 °F - 66.9 °F 68% 30.06 in 10.0 mi South 15.0 mph - N/A   Clear
1:55 AM 77.0 °F - 66.9 °F 71% 30.06 in 10.0 mi South 17.3 mph - N/A   Clear
2:55 AM 75.9 °F - 66.9 °F 74% 30.06 in 10.0 mi South 16.1 mph - N/A   Clear
3:55 AM 75.0 °F - 68.0 °F 79% 30.06 in 10.0 mi SSW 15.0 mph 23.0 mph N/A   Clear
4:55 AM 75.0 °F - 68.0 °F 79% 30.06 in 10.0 mi SSW 16.1 mph - N/A   Clear
5:55 AM 73.9 °F - 68.0 °F 82% 30.06 in 10.0 mi SSW 13.8 mph - N/A   Clear
6:55 AM 73.9 °F - 68.0 °F 82% 30.07 in 10.0 mi South 12.7 mph - N/A   Clear
7:55 AM 75.0 °F - 68.0 °F 79% 30.06 in 10.0 mi SSW 13.8 mph - N/A   Clear
8:55 AM 78.1 °F - 69.1 °F 74% 30.06 in 10.0 mi SSW 15.0 mph 21.9 mph N/A   Clear
9:55 AM 82.0 °F 85.5 °F 69.1 °F 65% 30.06 in 10.0 mi SSW 16.1 mph 23.0 mph N/A   Clear
10:55 AM 84.9 °F 88.8 °F 69.1 °F 59% 30.06 in 10.0 mi SSW 18.4 mph 25.3 mph N/A   Clear
11:55 AM 88.0 °F 91.4 °F 68.0 °F 51% 30.05 in 10.0 mi SSW 20.7 mph 25.3 mph N/A   Clear
12:55 PM 90.0 °F 93.6 °F 68.0 °F 48% 30.04 in 10.0 mi SSW 19.6 mph 24.2 mph N/A   Clear
1:55 PM 91.9 °F 96.9 °F 69.1 °F 47% 30.01 in 10.0 mi SSW 18.4 mph 25.3 mph N/A   Clear
2:55 PM 91.9 °F 95.9 °F 68.0 °F 45% 29.99 in 10.0 mi SSW 13.8 mph 25.3 mph N/A   Clear
3:55 PM 91.9 °F 95.4 °F 66.9 °F 44% 29.98 in 10.0 mi SSW 15.0 mph 24.2 mph N/A   Clear
4:55 PM 91.0 °F 94.3 °F 66.9 °F 45% 29.98 in 10.0 mi South 17.3 mph 24.2 mph N/A   Clear
5:55 PM 91.0 °F 93.8 °F 66.0 °F 44% 29.97 in 10.0 mi South 13.8 mph 23.0 mph N/A   Clear
6:55 PM 89.1 °F 91.3 °F 66.0 °F 46% 29.97 in 10.0 mi South 15.0 mph - N/A   Clear
7:55 PM 86.0 °F 87.6 °F 64.9 °F 49% 29.97 in 10.0 mi South 13.8 mph - N/A   Clear
8:55 PM 80.1 °F 82.1 °F 66.0 °F 62% 29.98 in 10.0 mi SSE 8.1 mph - N/A   Clear
9:55 PM 80.1 °F 81.9 °F 64.9 °F 60% 29.97 in 10.0 mi South 12.7 mph - N/A   Clear
10:55 PM 80.1 °F 81.9 °F 64.9 °F 60% 29.96 in 10.0 mi South 13.8 mph - N/A   Clear
11:55 PM 78.1 °F - 66.0 °F 66% 29.97 in 10.0 mi South 18.4 mph 23.0 mph N/A   Clear